Voltar ao catálogo

WESTFORD NEEDLES

LostPO
NORAD 2372·DEBRIS·🇺🇸 United States

Lançado May 9, 1963 de Vandenberg Space Force Base

Loading…

Próximas Passagens (próximas 24 horas)

TLE

ObsoletoSource: Space-Track

Época: Nov 18, 2013, 05:31 UTC

1  2372U 63014T   13322.23028137 +.00000002 +00000-0 +00000-0 0  9997
2  2372 087.4481 223.7980 0364875 229.3113 282.4794 08.66555747525688

Acompanhe WESTFORD NEEDLES em tempo real com AllMySat

Download on the App Store